GFSWCAN_sfc_temp_282.txt.gz
Temp
59 59 60 59 58 57 57 58 58 57 57 56 56 56 55 55 54 51 51 54 50 47 54 54 55 54 53 55 52 51 51 50 46 43 47 50 48 53 51 53 47 45 39 39 43 38 41 52 49 53 61 60 59 61
56 58 60 59 58 57 57 57 57 57 57 56 56 56 55 55 54 51 47 53 52 47 50 53 55 56 56 59 58 51 53 53 57 51 49 53 46 48 51 48 47 45 54 50 50 53 57 56 55 56 56 57 59 58
56 55 59 58 57 57 57 57 57 56 56 56 55 55 55 54 54 51 48 50 48 45 48 48 52 57 55 57 61 52 51 54 53 55 51 46 44 51 47 48 55 51 53 51 50 62 61 60 59 55 56 59 61 60
55 55 55 56 57 57 57 57 57 56 56 55 55 54 55 54 53 50 46 48 49 48 42 48 52 52 55 56 56 57 55 52 53 50 45 44 43 51 51 52 51 56 53 53 54 57 60 63 60 61 59 57 59 61
54 55 54 56 56 57 57 57 57 56 55 54 54 54 54 53 52 46 44 45 47 46 40 44 49 51 50 52 53 54 53 52 50 45 44 43 49 47 50 47 49 53 55 53 56 63 61 63 62 61 58 58 59 59
55 55 55 55 55 56 56 56 56 55 55 54 53 53 53 52 49 45 37 45 45 47 43 38 47 44 47 49 50 50 51 50 50 46 43 49 49 50 42 46 58 61 60 62 60 62 60 62 63 63 61 62 63 61
54 55 55 55 55 56 56 55 55 55 54 53 52 52 52 49 46 39 38 43 47 47 41 35 38 41 43 46 46 45 46 45 47 43 41 47 46 45 40 42 55 58 59 60 61 60 57 62 61 66 65 65 62 62
54 54 54 54 54 55 56 55 54 54 53 52 52 51 49 48 48 42 44 47 47 42 42 33 35 39 42 39 38 40 38 41 41 41 41 45 46 43 35 51 55 57 59 60 61 64 63 64 63 62 63 62 59 59
54 54 54 54 53 53 56 55 54 53 52 51 50 48 44 41 39 41 47 47 46 41 33 33 34 32 41 37 37 38 39 35 39 38 39 41 38 36 47 49 50 52 51 54 55 55 56 56 57 59 60 60 58 59
53 54 54 53 53 53 52 54 53 52 50 48 43 37 32 38 47 48 42 38 37 36 37 33 41 35 41 35 34 36 35 37 33 40 42 35 39 49 50 48 48 48 48 49 46 48 51 50 52 53 54 56 57 58
53 53 53 53 53 53 51 53 51 49 46 39 34 33 40 48 40 35 31 31 31 30 34 36 40 35 40 37 35 37 33 34 29 37 34 33 34 43 48 46 48 48 48 48 48 48 49 49 48 48 49 51 52 53
53 53 53 53 53 54 52 50 47 43 40 40 40 42 39 34 31 28 26 28 27 29 34 33 36 39 36 40 36 33 33 32 29 37 31 29 40 43 44 45 46 46 47 47 48 47 48 48 49 48 48 48 49 51
52 53 53 53 53 53 50 47 48 46 47 43 36 32 31 31 26 24 21 24 26 31 34 35 33 36 35 38 34 33 30 30 36 30 32 38 42 44 44 44 44 46 46 46 46 48 47 47 48 48 47 49 49 48
52 52 52 52 52 52 48 48 47 48 40 32 29 24 27 24 28 30 31 32 34 34 35 37 33 35 35 34 35 30 34 34 28 27 31 42 42 45 44 44 43 44 44 44 45 46 46 46 47 48 48 48 47 46
51 51 50 49 51 50 47 47 48 43 33 30 31 25 25 34 33 35 37 35 37 39 37 34 34 36 33 32 33 33 29 28 31 33 42 43 44 43 43 43 44 44 45 45 46 45 45 45 46 47 48 47 47 45
49 47 47 49 50 47 47 47 39 34 29 27 28 27 29 30 28 32 35 34 40 39 40 38 32 30 30 32 29 30 30 29 35 41 44 44 42 42 42 43 44 45 46 46 47 46 45 43 42 44 45 47 46 44
47 42 49 50 47 46 46 35 32 28 27 24 24 30 33 34 31 32 37 37 42 38 33 32 28 28 32 29 29 34 33 39 42 41 43 43 42 42 43 43 44 45 45 46 46 47 47 46 44 43 42 43 44 44
41 44 48 49 45 42 33 31 28 27 23 21 26 28 31 35 34 35 38 41 39 37 35 32 34 29 28 27 31 36 39 42 43 41 42 42 42 42 43 43 45 44 44 45 45 46 46 46 44 41 40 40 40 43
41 42 45 46 42 37 30 27 28 20 19 24 27 31 32 31 36 37 39 41 37 37 33 31 30 31 33 36 38 38 39 40 39 40 41 42 43 42 42 42 43 43 44 44 44 44 45 46 45 43 40 38 37 40
48 48 46 46 43 30 26 24 25 24 22 24 29 29 30 31 32 34 34 32 34 34 32 28 31 35 37 39 40 41 41 41 39 38 39 40 42 42 43 43 43 43 43 43 44 43 45 45 47 47 43 38 36 35
37 35 37 35 30 27 24 22 21 23 24 25 28 29 26 31 30 30 30 33 32 32 32 35 33 38 37 38 39 41 41 42 42 43 42 41 44 43 43 43 43 42 41 42 42 43 43 44 45 45 45 43 38 36
34 38 32 32 28 26 24 25 24 25 25 26 28 29 27 27 27 29 30 29 30 37 35 34 36 38 36 36 38 39 42 42 42 42 40 40 41 41 42 43 41 41 42 42 42 42 43 45 45 45 44 44 42 37
38 35 31 29 25 24 21 25 23 25 22 23 27 24 24 25 29 32 29 32 34 38 41 38 37 38 40 40 39 39 39 40 40 40 41 42 41 41 41 41 41 40 40 43 44 43 43 43 44 43 44 44 42 40
36 27 24 23 23 19 23 20 23 24 24 23 24 19 20 23 26 25 25 29 33 35 34 36 37 38 36 35 37 40 39 39 41 41 41 40 39 40 41 42 42 42 43 43 43 43 43 43 42 44 43 42 42 41
27 22 23 18 21 19 16 18 19 22 20 21 20 18 19 24 21 20 21 28 31 33 35 35 37 39 39 40 40 40 41 40 39 38 41 40 41 41 40 40 41 43 43 41 41 41 42 42 43 42 42 42 41 40
19 18 20 20 18 19 18 15 18 19 20 19 21 21 21 21 17 19 26 31 34 36 37 36 36 35 36 39 39 36 37 39 39 38 40 40 40 40 41 39 39 41 42 42 41 40 40 40 40 40 40 41 40 39
19 16 16 17 22 24 22 24 26 23 19 18 18 18 20 18 18 27 33 34 34 35 38 39 40 38 39 38 37 39 40 39 39 40 43 42 43 43 43 41 40 42 42 41 41 40 39 39 39 39 39 40 41 40
17 17 17 19 23 26 21 22 21 21 22 23 23 19 20 23 28 34 33 35 37 36 36 37 38 39 38 37 38 37 37 37 36 37 38 38 39 40 41 42 42 39 40 40 40 40 39 39 39 39 38 37 38 41
19 20 24 17 21 23 24 24 24 27 27 26 25 24 25 30 34 34 34 34 35 35 35 34 34 35 35 36 36 36 37 35 34 33 34 36 38 39 39 39 40 40 40 39 39 39 39 39 39 39 39 39 39 39
17 20 19 17 18 20 25 28 28 29 29 31 31 29 28 29 32 32 33 32 33 34 37 37 36 34 34 35 35 33 35 38 40 40 37 37 40 44 40 40 40 40 39 39 39 39 39 39 39 39 38 38 38 37
19 21 20 21 21 23 25 27 28 27 26 26 25 28 29 29 31 32 33 34 35 35 35 34 34 35 35 35 35 36 35 36 36 40 42 43 42 40 40 40 40 40 38 38 38 37 37 37 37 36 36 36 36 36
18 19 20 17 19 21 24 25 26 25 23 25 25 23 26 28 27 32 33 33 33 33 35 37 35 36 37 39 40 41 41 43 38 37 38 39 40 40 39 39 39 37 37 37 37 36 36 35 35 35 35 35 35 35
16 20 19 17 16 18 22 23 21 19 20 21 22 24 26 27 25 32 33 36 38 39 38 39 40 41 41 38 39 40 41 42 40 40 40 40 41 41 40 38 38 37 37 37 37 36 35 35 34 34 34 34 35 35

GFSWCAN_sfc_temp_285.txt.gz
Temp
58 59 59 58 58 58 58 58 58 57 57 57 57 56 56 55 55 54 55 58 52 51 58 58 61 58 60 60 54 58 55 54 49 45 49 51 52 57 55 59 50 46 41 41 46 43 41 60 55 54 63 62 62 64
58 58 59 58 58 59 59 58 57 57 56 56 56 56 56 55 55 54 51 57 53 48 54 59 61 63 61 59 61 60 59 58 60 52 55 58 53 56 55 49 60 51 57 52 52 53 64 62 65 66 61 61 63 62
58 58 57 57 58 59 59 58 57 56 55 55 55 55 55 55 54 52 51 53 50 47 49 53 53 62 62 61 66 56 58 61 58 60 58 52 48 58 50 53 57 59 64 54 58 63 64 67 67 67 66 63 65 65
56 56 56 56 56 57 59 58 57 56 55 55 55 55 55 55 54 52 47 51 53 51 43 51 58 59 61 61 61 62 59 58 58 55 48 48 46 58 54 57 55 61 60 57 58 63 65 67 67 68 67 65 63 65
55 55 55 55 55 55 58 58 57 56 55 55 54 54 54 54 53 49 47 48 50 47 42 48 52 55 55 56 56 58 58 57 54 48 46 45 56 54 55 53 52 60 58 55 55 66 64 66 68 66 64 63 65 64
55 55 55 55 55 54 54 57 56 55 55 54 54 54 53 52 49 43 37 45 47 47 45 39 51 48 50 51 53 53 55 54 53 50 49 54 55 53 46 48 59 63 64 64 61 67 67 67 66 68 65 66 66 65
56 55 54 54 54 54 53 53 55 55 55 54 54 53 52 50 45 40 39 46 49 49 41 37 41 46 49 50 49 49 51 47 49 47 44 47 46 48 45 44 57 61 63 63 65 64 60 63 62 67 68 68 66 67
55 54 54 54 54 53 53 53 55 55 54 54 53 51 50 48 45 41 46 48 50 44 44 34 36 41 48 42 40 44 41 43 43 43 42 43 49 46 39 52 57 59 61 61 63 65 65 65 64 64 64 63 61 62
54 54 54 54 54 53 54 54 54 55 54 53 51 48 43 40 37 41 48 48 46 43 33 34 35 34 45 41 42 39 42 36 43 38 40 44 42 36 46 52 55 58 57 59 61 58 58 57 58 60 60 60 58 59
54 54 54 54 54 54 54 54 55 54 52 47 43 35 32 37 49 48 41 38 37 37 39 33 45 37 44 40 37 37 38 39 33 41 46 38 41 51 55 56 57 57 55 55 51 51 55 55 54 54 54 55 55 55
53 53 53 53 53 53 54 53 55 50 47 38 32 33 39 48 41 35 31 30 32 31 35 40 44 38 45 38 36 39 34 36 31 39 36 35 36 46 54 56 59 54 55 55 54 54 53 52 51 51 51 53 53 54
53 53 53 53 53 53 53 53 48 46 40 38 37 38 38 34 31 28 28 31 30 31 39 39 42 45 41 43 38 35 34 34 30 40 33 31 41 50 50 51 54 54 53 52 52 51 52 52 52 51 51 51 52 53
52 53 53 52 53 53 53 49 51 46 45 42 35 32 31 30 24 24 21 26 29 36 37 39 34 37 35 37 36 34 31 31 41 31 31 39 49 47 49 51 51 52 51 50 50 51 51 51 52 52 50 52 52 51
52 52 52 52 52 52 49 48 47 46 39 32 30 25 28 25 29 31 34 35 39 40 38 38 34 36 36 33 34 30 35 34 28 27 32 44 47 48 50 51 50 48 49 49 49 49 49 49 49 50 50 51 50 49
51 51 51 51 51 52 50 47 49 43 34 31 31 26 27 38 40 42 44 41 40 43 40 38 36 36 34 32 34 34 29 28 31 35 43 49 49 50 49 48 48 48 49 49 49 48 48 49 47 47 48 48 48 48
51 50 50 51 50 50 48 48 39 33 31 32 31 31 37 35 34 40 38 36 42 41 42 40 33 31 30 33 30 30 30 30 36 43 49 50 50 49 48 49 49 50 50 49 50 50 49 49 48 48 47 47 45 44
50 48 50 50 50 47 46 35 32 30 28 27 27 33 37 38 35 36 42 40 44 38 33 33 30 30 34 31 30 37 34 42 45 48 49 49 47 47 49 49 48 49 49 49 50 50 49 50 50 48 46 46 43 43
48 50 50 51 49 42 32 33 31 29 26 26 27 32 36 39 37 40 43 44 41 38 36 33 36 30 30 29 33 39 41 46 49 49 48 47 48 49 48 48 49 49 49 49 49 49 49 48 48 48 48 47 43 42
48 49 50 49 43 35 32 29 31 23 23 27 31 34 34 35 41 43 43 43 43 40 36 34 32 33 36 40 41 41 45 45 43 44 45 48 49 47 46 47 47 48 48 48 48 47 48 48 48 48 48 48 44 42
45 48 48 47 45 32 27 25 30 26 24 28 32 31 32 33 37 39 41 40 37 34 32 31 34 40 40 43 46 47 48 46 44 41 42 44 46 46 45 46 47 48 47 47 47 45 47 47 49 50 49 47 44 43
40 44 46 41 31 30 27 26 26 29 28 29 31 31 28 32 32 33 34 36 32 33 34 39 38 41 42 42 46 47 45 46 45 46 44 42 46 46 47 47 47 47 45 45 45 46 46 47 48 48 48 47 48 47
33 45 35 33 29 28 26 29 28 30 29 29 30 32 29 29 29 31 32 31 33 38 41 39 41 43 42 41 42 45 47 48 48 46 45 46 44 44 45 47 45 45 46 46 46 45 46 47 48 47 47 47 46 46
37 34 31 31 27 26 23 28 26 28 23 26 29 25 26 29 32 34 31 34 37 42 44 42 43 44 45 46 44 43 44 46 45 45 45 46 47 47 46 46 46 44 44 46 47 46 46 45 46 46 46 46 46 45
36 29 26 25 26 21 25 23 27 26 27 25 25 21 24 27 29 29 29 34 36 43 40 42 42 41 43 42 41 43 44 45 45 46 47 46 44 44 45 46 46 46 46 48 47 46 46 46 45 47 46 45 45 44
29 24 25 20 24 21 20 20 22 24 21 24 22 20 22 27 24 25 25 31 34 36 40 42 41 43 42 43 44 45 48 45 43 43 46 46 46 46 45 45 45 46 48 45 44 44 45 46 45 45 44 44 43 42
21 20 23 23 21 22 22 19 21 21 22 21 22 24 24 24 21 22 28 32 35 37 39 39 40 40 42 45 44 45 46 48 46 42 45 47 45 44 42 40 40 42 46 46 45 43 43 44 43 43 43 43 42 41
20 19 21 22 27 27 25 27 28 26 22 21 21 20 21 20 22 31 38 37 37 42 45 45 45 44 44 44 45 48 48 46 43 44 47 48 47 47 46 44 43 46 46 45 45 43 42 42 42 42 41 42 42 42
23 22 18 21 25 28 23 25 24 24 25 27 25 20 22 26 30 38 38 38 41 42 42 44 45 46 46 46 45 44 43 43 44 42 43 44 46 47 47 49 50 42 45 44 43 43 42 41 41 41 40 39 40 42
23 26 27 21 24 25 26 25 27 30 31 28 28 27 28 35 39 38 38 38 40 41 38 37 38 42 42 42 43 43 42 40 36 34 35 37 38 40 43 46 46 44 44 42 40 41 42 41 42 41 41 40 41 41
23 27 25 24 24 26 29 32 32 32 32 34 33 33 33 34 37 38 38 37 37 38 41 42 40 39 38 38 37 37 40 41 43 42 39 39 43 48 45 43 43 43 44 43 42 41 41 40 40 40 39 39 39 38
25 26 25 27 25 27 28 31 32 32 31 31 31 31 32 33 36 38 37 39 39 39 38 37 37 39 39 39 38 36 36 40 42 44 46 48 48 48 46 46 45 45 43 42 42 41 40 39 39 38 38 37 37 37
25 24 25 22 23 25 28 29 29 28 27 28 29 29 31 32 31 37 37 37 36 36 38 40 38 38 40 43 44 45 43 45 40 41 41 42 43 44 44 44 44 42 41 40 40 39 39 37 37 37 37 37 37 37
23 25 24 23 22 22 26 27 26 24 25 26 28 29 30 32 29 36 37 39 41 41 40 41 43 44 44 41 43 43 43 44 43 42 41 41 42 42 43 42 42 40 40 40 40 39 38 37 36 36 36 36 36 36

GFSWCAN_sfc_temp_291.txt.gz
Temp
58 58 58 58 58 58 58 58 58 59 58 57 57 57 57 56 55 52 48 54 51 44 47 53 55 52 51 52 44 47 46 44 37 36 35 38 37 43 42 43 38 36 32 28 28 27 33 51 47 46 49 47 50 49
58 58 58 58 58 58 58 58 58 58 58 57 57 57 56 56 55 54 46 54 53 48 45 49 52 54 55 53 51 45 46 44 45 38 37 39 38 40 41 37 41 38 42 36 38 41 52 51 52 51 51 51 50 49
58 58 57 57 57 58 58 57 57 57 58 57 56 56 56 55 54 52 49 49 49 45 47 48 46 54 55 57 56 45 45 51 48 48 42 39 38 41 37 40 43 45 48 42 42 49 52 55 53 53 53 53 53 53
57 57 57 57 57 57 58 58 58 58 57 57 56 56 55 54 54 52 46 49 48 45 38 43 53 53 57 56 56 55 52 51 48 44 36 34 34 44 40 44 43 47 47 45 44 50 54 55 54 56 54 52 53 54
56 57 57 57 57 56 56 57 58 57 56 56 55 55 55 54 53 51 47 46 47 43 37 41 48 49 53 53 53 54 52 47 42 39 35 35 40 41 39 40 37 47 46 44 47 53 57 52 54 54 53 53 55 53
56 56 57 57 56 56 55 56 56 57 57 56 56 56 55 54 52 45 37 45 45 47 40 34 45 42 47 49 50 49 47 46 43 40 38 40 45 43 32 34 51 54 53 56 56 58 54 54 56 56 56 56 55 54
55 56 56 56 56 55 55 55 54 55 55 55 56 55 54 53 48 41 37 42 48 49 38 33 34 43 45 46 44 45 47 45 45 42 39 39 40 41 29 40 47 51 56 59 60 56 53 54 55 56 55 55 55 52
54 55 55 55 56 55 54 54 54 54 54 54 55 55 53 51 46 39 42 47 49 42 37 32 32 34 41 37 37 43 38 40 40 41 40 41 41 40 35 44 50 55 54 54 56 56 54 55 52 53 54 52 48 48
54 55 55 55 55 55 54 54 54 54 54 54 54 54 46 39 33 37 47 48 45 39 32 32 30 27 39 35 34 37 39 34 38 36 38 42 39 36 42 43 47 50 52 55 58 59 57 53 51 51 51 48 45 45
54 54 55 55 55 54 54 53 54 54 53 52 47 36 30 34 47 46 38 33 33 32 33 32 34 28 35 33 32 33 34 33 32 35 39 35 38 49 49 46 48 50 54 56 51 49 48 45 46 45 46 46 45 45
53 54 54 54 54 54 53 53 53 53 49 37 32 30 34 46 37 33 30 30 31 29 32 34 35 30 37 31 33 35 32 33 30 33 33 30 35 45 51 52 52 51 52 53 56 55 51 48 45 44 44 45 45 43
53 54 54 54 54 53 52 52 53 43 38 37 35 36 35 33 31 27 26 29 29 27 30 32 34 36 35 38 33 33 32 32 28 34 31 27 33 43 47 50 52 55 55 50 49 47 46 46 45 44 43 43 44 44
53 53 54 54 54 53 52 51 45 45 43 37 34 31 30 29 23 22 20 22 23 29 31 34 33 33 33 35 33 32 30 29 35 30 28 29 37 42 42 44 47 49 49 50 46 46 46 45 45 46 45 44 44 43
52 53 53 53 53 52 51 46 46 44 38 31 28 23 25 22 24 26 26 27 33 33 35 38 30 32 33 32 32 29 31 32 27 25 25 30 38 44 40 42 42 44 47 45 45 45 45 44 44 44 44 44 43 42
52 53 52 51 51 49 47 47 48 40 34 30 30 23 24 30 30 32 35 34 36 41 40 35 33 33 32 31 31 26 28 23 24 25 29 37 42 45 41 41 40 41 44 45 45 44 44 43 43 42 43 42 42 42
53 52 48 51 50 47 48 46 38 35 32 31 30 28 29 29 28 33 35 31 40 41 40 35 32 30 30 28 27 28 23 23 25 31 38 39 39 39 40 42 42 43 43 44 45 45 44 43 42 42 41 41 41 40
51 44 51 51 51 48 46 36 33 32 31 29 25 29 32 32 33 33 37 37 42 36 31 31 28 27 29 27 27 27 26 30 35 36 38 39 39 39 42 44 45 45 44 44 43 43 43 43 42 41 38 39 39 39
44 47 51 51 48 42 33 33 33 30 23 21 21 23 27 31 33 35 36 40 37 35 32 30 32 28 26 24 26 28 33 36 38 37 38 39 40 41 44 42 44 44 43 43 43 42 42 41 40 38 39 39 38 37
46 48 49 47 43 35 31 29 31 25 16 25 22 23 25 28 33 36 38 41 37 37 35 33 30 27 27 29 32 33 34 35 35 36 37 39 42 42 41 43 43 42 42 41 41 40 40 40 39 38 38 38 37 36
51 49 48 47 41 31 26 23 28 20 15 21 23 27 25 27 31 34 37 38 35 33 31 29 30 31 32 34 35 36 36 38 36 34 36 37 39 42 42 43 42 41 40 40 39 41 39 38 39 39 39 37 35 35
44 45 42 36 31 30 27 22 21 21 22 21 22 24 23 32 32 32 33 35 31 31 31 31 31 36 36 35 36 37 38 39 37 38 40 36 39 41 41 40 40 39 38 37 37 38 39 37 38 38 38 36 36 35
35 41 32 33 28 25 19 20 18 19 24 25 26 23 22 25 29 32 33 31 31 35 34 33 34 35 33 34 35 37 39 39 39 40 42 42 38 38 39 39 39 38 37 37 37 37 37 38 37 37 36 35 38 35
39 36 32 31 26 24 22 24 17 22 19 21 24 21 18 21 25 33 30 31 32 33 38 38 38 38 37 39 39 37 38 38 38 39 41 41 42 41 39 38 39 37 36 37 38 37 37 40 39 36 35 35 34 33
38 31 26 22 24 19 18 17 23 24 24 23 21 14 14 19 30 27 24 27 30 35 36 36 37 36 36 35 35 35 36 38 38 37 39 40 38 38 39 39 39 39 39 38 37 37 36 36 39 36 34 34 33 32
27 23 25 20 18 15 10 15 16 11 8 10 9 8 14 21 17 18 21 26 34 34 37 38 35 38 37 38 39 38 38 40 39 39 39 41 39 36 35 36 36 38 38 36 35 36 35 35 35 35 34 33 33 33
21 22 18 19 20 16 15 12 15 18 20 18 14 15 17 17 14 15 23 30 32 34 36 36 36 36 38 41 39 35 38 42 41 38 40 41 41 40 37 34 33 34 37 40 37 35 35 35 34 34 33 35 39 35
17 18 19 21 24 22 20 23 25 21 14 12 15 17 16 11 13 24 31 34 34 36 39 41 41 40 40 41 44 45 43 43 41 41 39 42 43 44 41 38 35 38 37 39 39 38 36 35 33 33 33 32 33 33
17 18 17 19 22 26 21 21 20 19 20 22 21 15 18 20 24 32 32 33 35 35 34 37 42 43 43 43 43 41 37 40 37 36 35 35 36 40 41 39 39 41 39 40 40 38 36 35 34 32 32 32 32 32
17 19 21 15 22 23 23 24 24 27 28 26 24 23 25 30 33 33 34 33 34 34 32 32 34 36 36 37 37 41 39 38 35 32 32 33 30 34 35 37 37 37 38 37 42 40 36 36 34 33 33 32 32 32
16 22 22 19 21 23 25 25 27 25 25 26 27 28 28 29 30 33 32 31 31 31 33 34 34 33 34 35 33 32 36 40 42 40 36 35 35 34 36 36 35 34 35 34 34 35 42 37 37 33 32 30 30 29
19 23 23 23 22 23 25 26 27 28 28 27 27 26 26 29 31 32 32 33 32 32 33 32 32 32 32 31 32 30 31 34 34 36 37 37 37 37 38 38 37 36 34 34 33 34 34 31 31 30 29 29 29 31
18 19 20 16 18 22 25 24 24 24 23 24 24 25 26 27 26 29 30 32 30 29 33 34 32 32 34 35 34 35 39 35 34 35 35 36 35 35 35 35 35 36 34 33 33 33 32 32 31 30 30 30 29 29
13 18 19 18 15 17 22 22 20 19 20 20 20 22 24 26 24 27 29 31 30 30 30 31 33 34 35 35 35 35 38 36 36 39 40 40 41 38 35 35 36 35 33 34 33 33 32 32 32 31 31 30 30 30

GFSWCAN_sfc_temp_297.txt.gz
Temp
58 58 58 59 58 58 58 58 58 57 58 58 58 58 57 57 56 54 50 52 51 45 45 50 51 50 48 48 44 47 47 44 37 37 36 36 35 40 38 40 36 36 31 28 28 27 34 48 46 45 50 45 48 48
58 58 58 58 58 58 58 58 58 57 57 57 58 58 57 57 56 55 49 53 53 46 46 48 50 51 52 51 53 46 48 44 48 42 38 41 38 35 39 36 38 38 43 36 38 41 50 47 52 53 49 52 50 49
57 58 58 56 56 57 57 58 58 57 57 56 57 57 57 57 56 53 49 49 48 44 46 48 49 55 53 54 57 47 44 50 47 50 42 38 37 38 34 37 40 40 44 40 41 46 49 49 53 49 50 51 51 51
57 57 58 57 57 57 57 57 58 57 57 56 56 56 57 56 55 54 47 48 46 42 35 41 52 51 58 56 55 55 53 50 49 46 37 33 34 43 39 42 41 46 44 42 40 46 48 51 51 55 52 51 51 51
56 56 57 57 57 57 57 58 58 57 57 57 57 56 57 56 55 53 46 47 49 43 35 38 45 51 52 53 54 54 52 49 45 41 35 34 38 40 36 36 39 44 44 44 48 51 54 58 59 54 51 52 53 51
55 56 56 56 57 57 57 57 57 57 57 57 57 57 56 56 55 45 38 45 48 46 38 35 43 43 46 48 50 51 52 47 45 42 41 39 41 45 32 35 55 52 52 56 57 55 52 53 54 55 52 52 51 50
55 55 56 56 56 56 56 56 56 56 56 56 56 56 55 55 49 46 39 44 49 46 36 32 34 39 43 45 45 45 48 44 46 42 40 42 42 43 28 42 54 51 55 57 57 51 51 52 56 55 52 54 52 50
54 55 55 55 56 56 56 56 56 56 56 56 55 55 55 54 51 44 43 49 49 39 37 32 32 34 40 35 38 42 39 41 40 43 40 43 42 40 35 49 47 54 56 52 53 57 59 62 62 59 51 50 48 49
54 54 55 55 55 55 56 56 56 55 55 55 53 53 48 40 37 39 48 47 43 39 31 32 31 29 37 32 35 38 40 35 40 37 40 41 38 35 43 47 49 47 49 52 53 55 55 55 57 57 49 47 50 49
54 54 54 54 55 55 55 56 55 54 53 51 44 38 32 35 48 47 38 33 32 32 32 31 35 29 35 31 33 35 35 34 30 34 40 35 36 44 49 50 47 48 51 54 51 50 53 55 58 57 49 52 51 50
53 54 54 54 54 54 55 55 54 52 47 40 33 30 36 45 38 33 29 30 30 28 31 33 33 29 37 32 32 34 32 32 29 32 34 32 32 43 51 51 53 55 52 52 54 57 57 57 56 50 46 47 47 46
53 53 53 53 53 54 54 54 51 43 40 39 36 38 36 33 31 28 27 29 28 28 30 32 33 34 34 38 34 33 31 31 28 36 32 28 38 48 48 49 52 54 54 54 55 54 55 50 49 48 48 46 44 44
52 53 53 53 53 53 53 53 49 45 44 39 34 31 30 29 24 24 21 24 25 28 30 33 31 34 34 35 33 32 29 29 35 30 28 32 37 40 41 44 48 51 51 52 52 53 54 53 47 46 44 44 43 43
50 51 52 52 53 53 53 48 48 45 39 32 29 23 25 22 22 25 24 25 30 29 31 36 30 32 34 33 32 29 32 31 27 25 26 37 34 40 44 42 41 42 43 45 45 47 48 48 44 44 45 44 43 41
51 52 52 52 52 52 49 48 48 41 34 30 29 24 23 25 25 26 28 27 30 36 37 34 33 32 31 31 31 30 27 26 26 27 31 34 38 38 38 38 39 39 40 41 42 42 42 41 42 40 41 41 41 40
51 51 48 52 52 49 48 47 41 36 32 31 30 26 27 25 22 27 28 25 34 38 38 35 31 29 29 30 27 27 27 25 28 31 35 37 37 37 37 37 37 38 38 39 38 39 40 40 40 40 39 40 40 40
51 42 50 51 50 48 46 37 34 32 32 29 28 27 27 27 27 27 30 31 38 37 30 31 28 27 31 27 26 30 28 31 35 37 38 39 39 38 38 37 37 37 37 37 37 38 39 39 39 39 37 38 38 39
42 46 51 50 47 41 33 33 33 31 28 26 28 29 27 30 28 27 30 36 37 34 32 30 31 28 26 23 24 27 30 34 38 39 40 39 38 38 39 37 37 37 37 37 38 38 39 39 39 38 37 37 36 36
45 49 50 47 44 35 32 30 31 26 24 27 25 25 29 29 31 34 35 40 36 36 34 32 29 26 26 27 29 32 34 35 36 36 36 37 37 37 37 37 37 37 36 36 37 38 39 38 38 37 37 37 35 36
51 49 47 47 43 32 28 26 27 25 24 25 27 27 27 25 27 30 32 34 34 33 31 29 29 30 31 33 35 36 36 36 36 35 35 37 37 36 36 36 36 37 36 36 36 39 36 35 36 37 38 38 36 34
43 45 42 36 30 28 25 21 23 19 23 24 29 29 26 31 30 25 27 35 32 32 29 30 27 33 36 36 38 37 38 38 37 36 35 35 37 35 36 37 36 36 35 35 35 36 37 35 36 38 38 37 37 36
34 39 32 33 28 25 23 18 20 21 21 26 27 23 27 28 29 31 32 32 31 35 29 30 32 36 35 35 37 37 39 40 39 37 40 38 34 34 34 35 35 35 36 37 36 37 36 36 37 36 37 36 37 35
39 36 31 29 24 23 21 20 18 16 22 24 27 23 23 25 29 34 30 32 30 31 36 37 35 36 37 39 40 39 39 38 37 35 37 37 35 36 36 36 37 36 35 35 37 36 37 39 39 36 36 35 34 33
38 29 26 23 20 13 9 7 12 13 14 23 21 9 15 21 28 29 26 26 29 30 32 35 36 35 34 32 36 40 42 40 39 36 36 34 34 35 36 37 36 38 40 40 38 37 37 37 39 36 35 34 33 33
29 23 24 16 10 8 6 16 9 14 13 11 11 14 12 22 24 24 23 24 26 29 33 32 34 36 35 37 38 39 43 40 38 37 38 38 36 35 34 34 35 39 39 37 36 36 36 36 36 35 33 34 33 33
19 18 16 8 8 13 14 12 12 14 16 12 13 12 18 23 19 15 20 25 27 30 30 30 32 32 33 37 37 38 40 42 42 38 39 38 38 38 36 34 33 35 37 41 38 37 36 36 35 34 34 35 38 34
13 12 13 14 19 19 18 20 20 15 8 8 9 17 14 7 11 21 26 27 28 29 31 31 32 32 34 36 39 41 42 39 39 41 43 39 41 42 41 38 36 39 37 39 38 38 37 36 36 35 35 33 34 34
15 14 17 16 19 22 15 13 12 13 17 19 19 14 12 15 20 27 28 29 29 30 30 31 32 33 33 35 38 38 36 37 38 35 34 34 36 40 41 43 41 40 38 39 40 39 39 38 37 35 35 35 34 33
13 15 20 15 17 19 20 19 18 23 24 23 20 18 19 25 27 26 27 29 31 31 29 29 32 34 32 34 34 37 36 34 32 30 31 33 33 35 36 38 39 39 38 38 41 40 38 38 37 36 36 36 35 33
12 16 18 17 16 17 22 25 24 25 25 26 27 27 28 28 28 29 29 28 28 28 29 30 32 31 29 31 31 31 33 36 39 38 35 35 38 38 36 37 37 38 35 35 35 35 42 39 38 34 32 31 31 30
15 19 17 19 18 23 24 25 26 27 27 26 27 26 25 28 28 28 27 28 29 30 29 28 30 32 29 30 31 31 32 35 35 37 38 39 39 38 36 36 37 35 34 34 34 34 34 34 33 31 31 32 32 33
18 20 20 15 17 21 25 24 25 25 24 23 24 24 25 25 23 25 29 28 26 25 27 27 27 27 31 32 33 32 35 34 34 35 35 36 36 36 36 35 34 34 33 33 33 34 33 33 32 32 32 32 32 32
11 16 19 19 15 15 21 21 19 17 19 19 20 21 23 24 20 24 30 31 28 27 27 29 30 31 32 31 30 30 32 32 34 36 38 37 37 38 35 34 34 33 32 32 33 33 33 33 32 32 32 32 32 32

GFSWCAN_sfc_temp_300.txt.gz
Temp
57 57 56 57 58 58 58 59 58 58 58 59 59 58 57 57 56 54 47 50 51 44 45 49 52 48 47 46 43 45 45 43 37 37 35 36 34 39 37 39 36 35 32 29 31 28 34 49 47 47 50 46 49 47
58 57 56 57 57 58 58 59 59 57 57 57 57 58 57 57 56 56 49 53 54 46 44 47 49 50 51 51 51 44 47 43 46 40 36 39 37 34 38 35 37 37 45 37 39 40 49 47 51 54 49 51 50 48
57 57 57 58 58 58 58 58 58 58 57 56 56 57 57 57 56 54 49 50 47 43 44 46 47 53 52 52 56 47 43 49 46 49 42 38 37 36 33 35 39 39 43 40 42 45 47 48 53 49 50 51 51 51
56 57 57 57 57 58 57 57 57 58 57 57 56 57 57 57 56 54 45 48 46 42 35 41 50 52 58 55 54 54 52 50 49 47 40 37 34 42 37 41 40 45 44 42 40 44 49 51 50 55 55 49 50 50
55 56 56 57 57 56 56 56 56 56 57 56 56 56 56 56 55 53 48 48 49 45 36 38 44 49 51 54 53 53 52 48 44 42 38 39 41 44 36 36 38 44 45 45 49 51 56 58 58 56 52 52 54 52
55 55 56 56 57 57 56 56 56 56 56 56 56 56 56 55 55 46 39 45 48 47 40 36 43 42 47 49 49 51 51 47 45 41 40 43 45 45 36 35 55 57 52 56 55 59 53 56 53 54 56 54 54 51
54 55 55 55 56 56 56 56 56 56 56 56 55 56 55 55 53 46 41 45 49 47 38 33 34 40 40 43 44 44 49 45 46 42 40 45 42 43 37 40 51 55 54 55 58 51 51 50 56 57 55 58 55 52
54 54 55 55 55 56 56 56 55 56 56 55 55 55 54 54 52 45 45 49 50 40 39 32 32 35 40 35 37 42 39 41 40 42 40 43 44 41 34 46 52 54 55 52 51 52 56 59 58 57 59 55 49 51
53 54 54 55 55 55 55 56 56 56 56 55 54 50 45 41 38 40 49 47 43 39 32 32 32 31 38 34 36 37 39 35 40 38 39 42 39 35 42 47 50 52 50 53 53 55 56 54 55 56 57 54 47 49
53 54 54 54 55 55 55 55 55 55 54 50 45 39 33 35 48 48 39 34 33 32 33 32 36 30 34 33 34 35 35 35 31 35 40 36 37 45 48 49 50 50 53 54 51 50 52 52 53 54 54 57 51 53
53 53 54 53 54 54 54 55 55 52 49 42 34 32 36 43 39 33 30 31 31 28 31 33 34 30 35 33 33 35 32 32 29 32 34 32 31 43 50 50 52 53 53 51 54 56 58 57 55 53 53 50 48 48
52 53 53 53 53 53 54 54 52 45 41 40 37 38 37 33 31 28 27 29 28 28 30 31 33 33 34 36 34 32 32 31 28 36 32 30 37 48 49 49 51 53 54 54 55 54 55 54 54 52 50 47 46 47
52 52 52 53 53 53 53 53 50 46 44 39 34 32 31 30 24 24 22 23 23 27 29 33 31 34 34 35 33 32 29 29 35 30 29 31 42 41 42 43 46 51 51 50 51 52 52 52 53 50 48 45 45 42
52 52 52 52 52 52 52 51 48 46 41 33 31 24 26 23 25 26 25 26 31 31 33 36 31 33 34 32 32 29 31 31 27 26 26 39 38 38 42 42 39 41 43 43 43 45 46 48 49 50 51 50 42 40
51 51 51 51 52 52 52 49 49 43 36 31 30 24 24 26 24 27 28 28 31 37 37 33 32 32 32 31 31 30 27 26 27 26 30 34 38 37 37 37 37 38 38 39 40 40 42 43 42 42 41 41 42 40
50 49 47 51 51 51 49 48 41 36 33 31 28 19 23 24 20 23 25 25 33 37 36 34 31 29 28 28 25 26 26 24 27 29 35 37 37 37 36 37 37 37 36 36 37 38 39 39 39 38 38 39 39 40
49 43 49 50 52 49 47 38 34 33 32 30 25 26 27 26 25 24 29 30 36 36 25 27 26 25 29 25 22 27 26 28 32 34 39 39 39 37 37 36 37 38 37 36 35 36 36 37 37 36 35 35 37 38
43 46 50 52 48 42 35 34 34 32 27 24 23 27 25 28 27 27 29 35 34 32 27 23 27 24 21 19 23 27 30 33 36 36 37 37 37 37 38 36 37 36 36 36 36 36 36 36 36 36 36 35 36 36
45 46 51 48 44 36 32 31 32 28 23 25 25 27 31 31 32 32 32 38 35 36 34 32 28 24 26 26 29 31 32 33 34 35 35 36 36 36 36 35 36 36 35 35 35 36 37 37 38 37 37 37 36 35
49 50 47 48 43 33 29 26 29 24 19 23 24 26 30 29 30 33 35 35 34 33 31 29 28 28 29 32 34 34 35 35 33 32 34 37 37 36 36 35 34 35 35 34 35 38 35 35 36 37 38 37 36 34
44 45 43 37 31 29 27 24 22 25 24 25 29 30 29 31 29 27 30 34 32 31 30 29 27 33 34 34 35 35 35 35 34 35 36 36 42 34 35 34 34 34 33 33 33 34 38 35 35 36 37 36 36 35
34 40 33 34 28 26 24 23 25 23 25 27 27 27 28 28 29 29 33 32 31 31 29 29 30 33 32 33 35 34 36 36 36 35 40 38 34 35 37 34 33 33 34 35 35 36 35 35 35 35 35 34 36 33
39 36 31 29 25 24 21 23 23 21 24 25 27 24 24 26 28 34 29 30 29 30 33 32 33 34 35 36 35 35 35 36 37 39 39 37 38 37 36 35 35 35 35 36 36 35 35 38 38 34 34 34 33 33
37 29 26 23 23 18 17 16 18 17 24 23 22 17 18 24 27 29 25 26 28 29 30 33 35 34 31 30 33 37 39 39 38 38 39 37 36 38 38 37 37 38 40 39 37 36 35 35 38 35 34 34 33 33
28 23 24 17 16 17 18 18 16 18 17 18 15 13 12 21 24 23 21 24 27 29 30 30 30 33 33 36 36 36 38 38 37 36 40 40 40 37 35 35 36 38 38 35 35 36 35 35 36 35 34 35 34 32
20 14 12 5 8 15 16 17 16 15 14 9 10 10 21 23 21 17 20 25 25 27 28 28 28 27 29 33 33 34 37 36 37 36 39 39 39 39 38 35 33 34 37 40 38 36 36 36 36 35 34 35 38 33
14 10 10 9 16 18 17 20 20 15 7 8 11 17 16 9 12 20 25 27 27 27 28 29 28 28 29 32 34 37 38 36 35 38 42 39 40 42 41 36 35 38 37 39 39 38 37 36 36 36 35 34 34 35
12 13 16 17 19 21 15 10 9 10 12 14 17 13 9 14 18 25 25 27 28 29 29 29 30 30 30 31 33 33 34 34 35 34 33 33 34 37 39 42 40 40 38 39 40 40 39 38 37 36 36 35 34 34
12 14 19 12 14 15 15 17 18 21 22 20 18 16 18 24 27 27 27 27 28 27 26 26 28 30 30 33 33 31 31 31 28 28 29 31 31 34 35 37 37 38 37 37 41 41 39 39 38 37 37 37 36 35
12 14 15 13 13 14 20 23 22 23 21 22 22 23 24 26 27 27 25 26 25 25 27 28 29 29 29 29 28 29 33 31 33 33 30 31 34 39 36 36 36 35 35 35 36 36 42 39 39 36 34 33 32 31
14 18 17 17 15 19 21 22 24 24 24 23 25 25 26 27 26 27 27 26 26 26 25 26 26 28 28 27 27 28 29 32 32 33 35 35 35 35 35 34 35 36 35 34 34 35 35 35 35 34 33 32 33 33
17 19 18 14 15 19 23 24 23 22 22 22 22 24 26 26 22 24 28 27 25 23 25 27 26 26 30 30 29 29 31 31 31 32 33 34 33 35 36 35 34 34 33 33 34 35 35 35 34 33 33 32 32 32
13 18 19 17 15 14 18 18 15 11 15 17 19 22 24 24 20 24 28 30 26 24 24 25 29 29 30 30 28 28 30 30 31 33 34 36 36 34 33 34 34 34 33 32 32 33 33 33 33 33 32 32 32 32